SCP
0 0 0 0 0 0 0 0 0 0 0 0 0 0 0 0 0 0 1 1 1 2 2 2 2 2 2 2 2 2 2 2 2 2 1 1 1 1 1 1 0 0 0 0 0 0 1 1 1
0 0 0 0 0 0 0 0 0 0 0 0 0 0 0 1 1 1 1 1 2 2 2 2 2 2 2 2 2 2 2 2 2 2 1 1 1 1 1 1 0 1 1 0 0 0 1 1 1
0 0 0 0 0 0 0 0 0 0 0 0 0 0 1 1 1 1 1 2 2 3 2 3 3 2 2 2 2 2 2 2 2 2 1 1 1 1 1 1 1 1 1 0 1 1 1 1 1
0 0 0 0 0 0 0 0 0 0 0 0 0 0 1 1 1 1 1 2 3 3 3 3 3 3 3 2 2 2 2 2 2 2 2 1 1 1 1 1 1 1 1 1 1 1 1 1 1
0 0 0 0 0 0 0 0 0 0 0 0 0 1 1 1 1 2 2 3 3 4 3 3 4 4 3 3 3 3 3 2 2 2 2 2 1 1 1 1 1 1 1 1 1 1 1 1 1
1 0 0 0 0 0 0 0 0 0 0 0 1 1 1 1 2 2 3 3 3 4 4 3 4 4 4 3 3 3 3 2 2 2 2 2 2 1 1 1 1 1 1 1 1 1 1 1 1
1 0 0 0 0 0 0 0 0 0 0 0 1 1 1 2 2 3 3 3 3 4 4 4 3 4 4 3 3 3 3 2 2 2 2 2 2 1 1 1 1 1 1 1 1 1 1 1 1
0 0 0 0 0 0 0 0 0 0 0 1 1 1 2 2 3 3 3 3 4 4 4 4 4 3 3 3 3 3 3 2 2 2 2 2 1 1 1 1 1 1 1 1 1 1 1 1 1
0 0 0 0 0 0 0 0 0 0 0 1 1 2 2 3 3 4 4 4 4 4 4 4 4 3 3 3 3 3 3 2 2 2 2 1 1 1 1 1 1 1 1 1 1 1 1 1 1
0 0 0 0 0 0 0 0 0 0 1 1 2 2 3 3 4 4 4 4 4 3 3 3 3 3 3 3 3 3 3 2 2 2 1 1 1 1 1 1 1 1 1 1 1 1 1 1 0
0 0 0 0 0 0 0 1 1 1 1 2 2 2 3 3 4 4 4 4 4 3 3 3 3 3 3 3 3 3 3 2 2 2 1 1 1 1 1 1 1 1 1 1 1 1 1 0 0
0 0 0 0 0 0 0 1 1 1 1 2 2 2 2 3 4 4 4 4 4 4 4 4 4 4 3 3 3 3 3 2 2 2 1 1 1 1 1 1 1 1 1 1 1 1 1 1 0
0 0 0 0 0 0 1 1 2 1 1 2 2 2 2 3 4 4 4 4 4 4 4 4 4 4 4 3 3 3 3 2 2 2 1 1 1 1 1 1 1 1 1 1 1 1 1 0 0
0 0 0 0 0 1 1 2 2 2 2 3 3 2 2 3 4 3 4 4 5 4 4 4 4 4 4 4 3 3 3 2 2 2 1 1 1 1 1 1 1 1 1 1 1 0 0 0 0
0 0 0 0 0 1 2 3 3 2 2 3 3 2 2 3 3 3 3 4 5 5 5 4 4 4 4 3 3 3 2 2 2 2 1 1 1 1 1 1 1 1 1 1 1 0 0 0 0
0 0 0 0 0 1 2 3 3 3 3 3 3 2 3 3 3 3 3 4 5 5 6 5 5 4 3 3 3 3 2 2 2 2 1 1 1 1 1 1 1 1 1 1 1 0 0 0 0
0 0 0 0 0 1 2 3 3 3 3 2 2 2 2 2 3 3 3 3 4 5 5 5 5 4 3 3 2 2 2 2 2 2 1 1 1 1 0 0 0 1 1 1 1 0 0 0 0
0 0 0 0 0 1 2 3 3 3 3 2 2 2 2 2 2 2 2 3 3 4 5 5 4 4 3 2 2 1 2 2 2 2 1 1 1 1 0 0 0 0 1 1 1 0 0 0 0
0 0 0 0 1 1 2 3 2 2 2 2 2 2 2 2 3 2 2 2 2 4 4 4 4 3 3 2 2 1 1 1 2 1 1 1 1 1 1 1 0 0 1 1 1 0 0 0 0
0 0 0 0 1 1 2 2 1 1 2 2 2 2 2 3 3 2 2 1 2 3 3 3 3 3 2 2 2 1 1 1 1 1 1 1 1 1 1 1 1 0 1 1 1 0 0 0 0
0 0 0 0 0 1 1 1 1 1 1 1 1 2 2 2 2 2 2 1 1 2 2 2 2 2 2 2 2 2 1 1 1 1 1 1 1 1 1 1 1 1 1 1 1 0 0 0 0
0 0 0 0 0 0 0 0 1 1 1 1 1 1 1 1 2 2 2 1 1 1 1 2 2 2 2 2 2 2 2 1 1 1 1 1 1 1 1 1 1 1 1 1 1 0 0 0 0
0 0 0 0 0 0 0 0 0 1 1 1 1 1 1 1 1 1 2 1 1 1 1 1 1 1 2 2 2 2 2 1 1 1 1 1 1 0 0 1 1 1 1 1 1 0 0 0 0
0 0 0 0 0 0 0 0 0 1 1 1 1 0 0 0 0 1 1 1 1 1 1 1 1 1 1 2 2 2 1 1 0 0 1 1 1 0 0 0 0 0 1 1 0 0 0 0 0
0 0 0 0 0 0 0 0 0 0 0 0 0 0 0 0 0 0 0 1 1 1 0 1 1 1 1 1 1 1 1 1 0 0 1 1 1 1 0 0 0 0 0 0 0 0 0 0 0
0 0 0 0 0 0 0 0 0 0 0 0 0 0 0 0 0 0 0 0 0 0 0 0 1 1 1 1 1 1 1 1 1 1 1 1 1 1 1 0 0 0 0 0 0 0 0 0 0
0 0 0 0 0 0 0 0 0 0 0 0 0 0 0 0 0 0 0 0 0 0 0 0 1 1 1 0 0 0 1 1 1 1 1 1 1 1 1 0 0 0 0 0 1 1 0 0 0
0 0 0 0 0 0 0 0 0 0 0 0 0 0 0 0 0 0 0 0 0 0 0 0 0 0 0 0 0 0 0 0 1 1 1 1 1 1 1 0 0 0 0 1 1 1 0 0 0
0 0 0 0 0 0 0 0 0 0 0 0 0 0 0 0 0 0 0 0 0 0 0 0 0 0 0 0 0 0 0 0 0 1 1 1 1 1 1 0 0 0 0 1 1 1 0 0 0
0 0 0 0 0 0 0 0 0 0 0 0 0 0 0 0 0 0 0 0 0 0 0 0 0 0 0 0 0 0 0 0 0 1 1 2 1 1 1 1 0 0 0 0 1 1 0 0 0
Wind_Speed
4 3 3 4 6 4 4 5 3 2 3 2 2 3 5 5 5 3 1 4 7 9 9 12 15 15 15 14 14 14 14 14 14 14 14 14 13 13 13 13 12 13 13 13 14 14 15 14 14
1 2 5 5 5 2 5 5 5 5 3 0 1 1 2 0 0 2 2 2 7 9 8 9 14 15 14 14 14 14 14 14 13 13 13 13 13 13 12 12 12 12 12 13 13 14 14 14 14
1 4 5 5 4 7 5 4 5 3 2 0 1 1 1 0 1 1 0 4 7 7 6 9 14 14 14 14 14 13 14 13 13 12 12 12 12 12 12 12 12 12 12 12 13 13 14 14 14
3 4 5 3 6 5 4 3 2 1 2 1 2 1 1 2 1 0 3 6 8 6 5 8 13 13 13 13 13 13 13 13 13 12 12 12 12 12 12 12 11 11 11 12 12 13 13 13 13
4 4 3 2 5 3 3 3 1 1 1 1 2 2 1 5 4 4 6 6 7 6 5 7 11 11 11 12 12 12 12 13 12 12 12 12 12 12 11 11 11 11 11 12 12 12 12 12 12
4 4 3 6 6 3 2 2 0 1 0 1 2 2 1 4 5 4 5 5 6 6 5 6 9 10 10 10 10 11 11 12 12 11 12 11 11 11 11 11 10 11 11 11 11 12 12 12 11
4 4 4 4 3 2 2 1 1 1 0 1 1 2 1 4 4 3 5 5 5 5 5 4 5 6 8 8 8 9 9 10 10 10 10 10 10 10 11 10 10 10 11 11 11 11 11 12 12
4 4 2 2 3 3 2 1 1 2 1 1 2 3 0 2 3 4 6 6 5 5 4 3 3 4 4 5 7 7 8 8 9 9 9 9 9 9 9 8 8 9 10 10 11 11 11 12 11
3 2 4 4 4 2 1 1 2 2 3 3 3 2 1 3 5 6 6 5 4 4 3 3 3 3 3 3 5 6 7 7 7 7 9 8 5 5 5 6 7 8 9 10 10 10 10 10 9
3 4 5 3 2 1 1 2 2 3 4 3 4 6 5 5 6 6 5 3 3 2 2 2 2 2 2 3 3 3 3 4 4 3 4 4 4 3 4 6 7 8 8 9 10 10 9 7 4
3 4 2 1 1 1 1 3 4 3 2 2 1 3 4 5 5 4 3 2 1 1 2 2 2 2 2 2 2 2 2 3 3 4 4 3 3 3 3 2 3 4 5 4 6 6 4 4 3
2 1 1 0 2 2 1 1 3 3 0 2 2 3 5 5 4 3 3 2 2 2 2 2 2 2 2 2 2 2 2 2 2 3 4 3 2 3 3 2 2 3 2 3 3 3 4 4 4
2 1 0 1 2 2 3 2 2 2 2 3 5 7 6 5 4 4 4 4 4 4 3 2 2 2 2 2 1 2 2 2 2 3 3 3 3 3 3 2 2 3 3 3 4 4 4 4 4
2 1 1 1 1 1 2 1 2 2 3 5 6 6 5 5 5 5 6 5 5 4 4 3 2 2 2 1 1 1 2 2 3 2 3 3 3 3 3 3 3 2 3 3 3 4 4 3 3
0 0 2 2 1 1 2 3 1 2 3 5 5 4 5 5 6 5 4 4 4 4 4 3 2 2 2 1 1 1 1 2 2 2 3 3 3 3 3 3 3 3 3 4 3 4 3 3 3
1 0 2 2 1 1 2 2 2 3 4 4 4 4 4 4 5 4 5 4 4 4 5 4 2 2 2 1 1 0 1 2 2 2 3 3 3 3 3 3 3 3 3 3 4 4 3 3 2
2 1 3 3 1 1 2 2 2 3 4 3 3 3 4 4 6 5 5 4 4 4 4 4 3 2 2 1 1 1 0 1 2 2 2 3 3 3 3 3 3 3 3 3 4 3 3 3 3
2 2 2 3 2 2 1 1 2 3 4 3 4 4 5 5 6 6 5 5 4 4 4 3 3 3 2 1 1 1 1 1 0 2 2 3 2 3 3 2 3 4 3 3 3 4 3 3 4
2 2 3 3 2 1 2 0 2 3 4 5 5 6 6 6 6 6 6 5 5 5 5 4 3 3 2 2 1 0 1 1 0 0 1 3 3 3 3 2 3 4 4 4 5 4 4 3 3
1 1 1 2 1 0 2 1 1 3 3 4 5 6 7 8 9 10 9 7 6 6 6 4 3 2 2 1 1 1 1 1 1 1 1 2 3 4 3 3 3 4 3 4 4 4 3 2 2
2 2 2 2 3 1 2 1 1 2 4 6 7 6 7 9 9 10 9 8 7 6 6 5 4 3 3 2 1 1 1 1 0 1 1 1 2 3 3 4 3 4 4 4 4 5 5 4 2
3 1 2 2 0 2 2 2 2 1 3 6 8 8 9 9 8 9 9 9 8 7 6 5 4 4 3 2 1 1 1 1 2 2 2 2 2 3 3 3 4 4 4 4 5 4 3 5 4
3 4 2 2 2 1 1 2 3 2 3 6 7 8 8 9 9 9 9 9 8 8 6 5 4 4 3 2 2 1 1 1 2 2 2 1 2 2 2 2 3 3 3 4 5 4 3 3 4
3 3 2 2 2 1 2 3 2 1 2 4 6 7 8 9 9 9 9 8 8 8 6 6 5 4 4 3 2 1 1 2 2 2 2 2 1 1 2 2 3 3 3 4 5 5 4 4 4
5 4 4 4 1 2 1 2 2 2 2 3 6 7 8 8 9 10 11 11 10 9 8 6 6 5 4 4 3 3 2 1 1 2 2 2 2 1 2 2 3 3 3 3 4 5 5 5 5
3 2 3 2 2 3 3 1 2 2 3 4 5 6 7 9 9 9 9 9 9 9 9 7 7 6 5 4 4 3 3 2 2 2 2 2 2 2 3 3 3 3 3 4 4 4 5 4 5
2 2 1 3 1 2 3 3 3 3 5 6 7 8 9 9 9 9 9 9 9 9 9 7 6 6 6 5 4 4 3 3 3 3 2 2 2 2 3 3 3 3 3 4 4 4 5 4 5
3 2 3 3 1 2 4 3 3 4 6 7 8 8 9 9 10 10 9 9 8 8 7 7 6 6 6 5 5 4 4 4 4 3 3 3 3 3 3 3 3 3 3 4 4 3 4 4 4
5 4 3 2 1 2 3 5 1 2 3 5 7 7 8 9 9 9 9 8 7 7 6 6 6 6 6 6 5 5 4 4 4 3 3 3 3 3 3 3 3 3 4 4 4 4 4 4 4
2 1 1 2 1 1 2 6 1 0 2 4 6 7 8 8 8 8 8 8 7 7 7 7 6 6 6 6 5 5 5 4 4 4 3 3 3 3 3 3 3 3 3 3 4 4 4 5 4
Wind_Direction
347 35 62 57 58 57 232 238 223 235 227 223 179 159 162 165 164 201 349 130 131 144 154 154 149 146 143 140 137 133 130 128 126 125 125 123 122 121 120 120 118 115 112 108 105 103 100 99 98
360 52 55 64 103 191 252 230 218 222 216 17 70 105 111 244 13 97 93 157 144 146 151 151 149 145 143 142 139 137 134 132 128 126 126 125 125 124 122 120 118 115 111 108 106 105 103 102 100
62 55 83 90 153 195 220 223 221 259 268 180 87 50 125 303 19 154 194 143 133 138 143 151 148 146 144 143 142 141 138 134 131 129 128 127 125 125 123 119 117 114 111 109 106 105 105 104 102
78 54 60 101 219 220 212 238 219 287 331 20 123 63 35 13 343 159 117 127 124 124 126 144 145 147 145 144 145 143 141 137 134 133 131 129 127 124 122 118 116 113 112 113 110 108 106 105 104
67 86 94 238 242 247 240 261 219 184 266 8 97 114 1 357 24 93 117 124 129 128 127 140 139 142 144 146 147 146 144 141 138 136 134 131 128 125 122 118 118 117 116 115 114 112 108 106 105
77 88 143 224 240 259 264 258 153 170 245 45 89 116 53 18 42 91 115 115 117 121 125 134 139 140 140 143 147 147 146 143 141 139 135 131 128 127 125 122 122 121 120 118 117 115 113 109 106
126 131 190 207 230 253 256 199 153 197 205 270 155 116 355 21 26 83 103 98 94 99 103 111 129 138 141 141 140 143 144 143 141 138 133 129 127 127 126 124 126 125 121 119 116 115 115 113 109
132 126 184 210 206 237 269 131 132 136 214 359 86 115 230 337 48 82 87 84 83 80 85 94 108 121 127 137 135 132 132 135 135 132 126 122 123 125 127 124 126 126 122 120 117 113 115 114 111
107 123 208 205 190 229 337 59 9 43 80 48 48 55 22 88 88 86 81 76 77 79 67 76 79 105 121 129 128 124 122 121 123 126 124 118 114 116 121 123 123 124 122 120 119 115 110 107 107
130 190 217 203 188 168 31 53 20 50 42 32 28 29 51 84 97 99 92 103 108 97 74 71 80 87 106 129 121 117 114 112 105 109 118 117 115 115 116 122 122 120 118 120 119 115 107 95 92
159 197 194 283 313 56 61 38 23 96 42 14 33 41 59 78 85 88 84 73 99 100 64 49 62 83 89 106 122 114 112 109 106 109 109 115 113 112 106 109 111 104 106 105 109 102 95 96 100
160 235 158 318 23 32 51 67 44 55 67 10 73 86 74 73 71 74 66 43 26 37 36 31 45 60 86 91 126 129 124 124 126 130 124 121 124 125 127 121 119 112 108 110 106 107 105 104 105
201 228 300 352 46 70 70 76 103 28 17 40 58 65 66 64 47 36 39 38 31 24 15 14 29 48 59 106 117 136 142 143 143 142 138 133 136 144 143 136 130 127 121 122 120 117 117 116 114
205 211 279 321 6 36 82 342 65 346 46 53 57 60 55 52 40 33 26 23 15 7 357 3 25 30 39 67 101 142 159 151 148 151 147 142 141 148 151 147 144 138 134 130 128 129 125 123 122
174 220 323 323 303 222 93 14 26 322 70 63 50 48 41 37 37 32 18 11 1 356 353 358 7 26 36 46 46 138 169 152 156 161 152 148 144 151 152 154 157 154 140 129 118 114 109 117 116
69 94 264 300 6 313 126 243 6 16 72 60 40 34 29 25 30 23 15 7 1 2 358 350 356 18 21 26 7 274 159 162 164 164 163 160 153 149 150 157 165 156 145 139 135 130 118 115 118
56 219 239 290 348 30 126 207 348 22 70 58 33 20 18 15 13 11 9 7 0 360 360 351 359 19 7 11 17 352 157 158 163 164 169 171 164 158 154 166 164 158 151 148 149 137 135 135 130
228 225 243 262 314 60 117 201 344 26 59 49 27 16 13 12 358 359 3 3 -0 359 2 356 2 10 14 26 35 24 30 57 100 171 173 167 171 166 156 159 165 160 158 158 153 144 134 139 141
234 216 254 268 302 81 147 203 328 19 47 38 28 20 12 3 359 4 5 4 8 7 7 -0 4 7 20 20 20 324 280 293 295 259 182 168 168 166 165 161 168 169 171 173 160 141 139 137 138
245 205 267 299 327 151 148 222 330 41 58 45 33 23 15 5 5 5 5 5 7 5 359 351 352 354 1 342 309 261 259 249 231 230 219 180 172 172 175 171 181 179 169 169 168 151 146 151 163
319 189 207 265 342 38 117 285 307 54 54 46 35 31 23 14 3 358 360 360 1 1 353 341 341 340 342 347 11 18 26 10 340 302 258 226 194 182 182 180 179 182 178 184 184 175 164 166 186
291 278 277 269 255 257 170 224 274 358 34 29 20 15 10 5 1 358 356 357 356 346 341 340 340 343 346 353 22 60 27 309 282 280 266 243 212 199 191 179 178 185 187 189 193 192 175 164 177
283 307 291 242 193 279 278 174 277 33 15 1 2 2 1 359 357 355 355 352 351 349 344 343 346 351 352 355 359 30 0 322 318 314 297 252 226 209 200 184 183 191 197 196 197 193 191 176 176
317 352 25 50 93 251 249 167 276 351 328 340 351 354 356 356 355 353 353 352 354 354 352 352 354 354 355 355 354 359 347 339 339 334 318 299 265 239 219 201 197 203 203 200 203 198 196 197 182
21 50 28 3 352 258 10 124 244 344 25 8 352 349 350 354 356 353 352 353 353 353 353 355 357 351 352 355 345 339 327 296 280 298 289 301 282 259 242 224 207 208 210 211 205 199 200 201 192
350 81 131 219 258 306 352 220 237 27 34 21 5 355 355 357 355 351 347 348 345 346 350 352 355 351 349 352 342 333 335 312 287 283 285 270 267 263 248 233 220 219 213 211 207 206 204 203 201
26 34 116 132 351 311 299 315 305 18 8 6 2 359 353 349 349 346 344 346 342 344 345 346 349 350 349 345 343 347 341 323 308 301 288 273 278 276 262 246 233 223 219 216 210 216 211 202 204
47 100 63 88 85 290 301 287 281 324 333 345 349 345 341 342 343 341 341 342 339 338 338 345 354 350 346 346 343 339 340 326 310 308 296 291 288 282 275 257 246 234 223 218 214 219 213 203 206
13 34 51 77 119 180 272 277 247 248 311 324 328 333 334 335 336 334 335 335 336 341 345 348 351 351 349 345 341 339 330 329 325 311 306 295 287 277 262 255 244 236 228 219 216 218 211 209 209
89 72 97 124 274 194 215 272 334 22 320 325 324 328 331 331 331 331 332 336 342 346 348 347 346 345 341 337 336 332 327 328 329 316 306 305 296 281 267 257 249 243 235 227 224 221 212 210 214